TimeEDT,TemperatureF,Dew PointF,Humidity,Sea Level PressureIn,VisibilityMPH,Wind Direction,Wind SpeedMPH,Gust SpeedMPH,PrecipitationIn,Events,Conditions,WindDirDegrees,DateUTC
12:54 AM,77.0,71.1,82,30.00,10.0,South,10.4,-,N/A,,Overcast,190,2013-08-09 04:54:00
1:54 AM,77.0,72.0,84,29.99,10.0,SSW,9.2,-,N/A,,Overcast,200,2013-08-09 05:54:00
2:54 AM,77.0,72.0,84,29.98,10.0,SSW,8.1,-,N/A,,Overcast,200,2013-08-09 06:54:00
3:54 AM,75.9,72.0,87,29.97,10.0,SSW,5.8,-,N/A,,Overcast,200,2013-08-09 07:54:00
3:59 AM,75.2,71.6,89,29.97,10.0,South,8.1,-,N/A,,Overcast,190,2013-08-09 07:59:00
4:54 AM,75.9,72.0,87,29.96,10.0,SSW,8.1,-,N/A,,Overcast,200,2013-08-09 08:54:00
5:54 AM,75.9,72.0,87,29.95,10.0,SSW,8.1,-,N/A,,Overcast,200,2013-08-09 09:54:00
6:54 AM,77.0,72.0,84,29.93,10.0,SSW,8.1,-,N/A,,Overcast,200,2013-08-09 10:54:00
7:39 AM,77.0,73.4,89,29.92,10.0,South,9.2,-,N/A,,Overcast,190,2013-08-09 11:39:00
7:54 AM,78.1,73.0,84,29.92,10.0,South,10.4,-,N/A,,Overcast,190,2013-08-09 11:54:00
8:54 AM,80.1,73.0,79,29.90,10.0,SSW,13.8,23.0,N/A,,Overcast,210,2013-08-09 12:54:00
9:20 AM,80.6,73.4,79,29.90,10.0,SW,13.8,20.7,N/A,,Overcast,220,2013-08-09 13:20:00
9:38 AM,80.6,73.4,79,29.90,10.0,SW,15.0,-,N/A,,Overcast,220,2013-08-09 13:38:00
9:54 AM,81.0,73.0,77,29.90,10.0,SW,13.8,-,N/A,,Overcast,220,2013-08-09 13:54:00
10:54 AM,82.9,73.0,72,29.90,10.0,WSW,16.1,-,N/A,,Overcast,250,2013-08-09 14:54:00
11:25 AM,84.2,73.4,70,29.90,10.0,SW,17.3,-,N/A,,Overcast,230,2013-08-09 15:25:00
11:54 AM,84.0,72.0,67,29.89,10.0,SW,16.1,-,N/A,,Overcast,230,2013-08-09 15:54:00
12:54 PM,84.9,73.0,67,29.88,10.0,SW,12.7,-,N/A,,Overcast,230,2013-08-09 16:54:00
1:54 PM,84.9,73.0,67,29.87,10.0,SW,12.7,-,N/A,,Overcast,230,2013-08-09 17:54:00
2:51 PM,84.2,73.4,70,29.85,10.0,SW,10.4,-,0.00,Rain-Thunderstorm,Light Thunderstorms and Rain,230,2013-08-09 18:51:00
2:54 PM,84.9,73.0,67,29.85,10.0,WSW,10.4,-,0.00,Rain-Thunderstorm,Light Thunderstorms and Rain,240,2013-08-09 18:54:00
3:42 PM,87.8,73.4,62,29.85,10.0,WSW,20.7,25.3,0.00,,Overcast,240,2013-08-09 19:42:00
3:54 PM,88.0,73.0,61,29.84,10.0,SW,17.3,-,0.00,,Overcast,230,2013-08-09 19:54:00
4:54 PM,87.1,72.0,61,29.85,10.0,SW,15.0,21.9,N/A,,Overcast,230,2013-08-09 20:54:00
5:54 PM,87.1,72.0,61,29.84,10.0,SW,16.1,-,N/A,,Mostly Cloudy,230,2013-08-09 21:54:00
6:54 PM,84.9,71.1,63,29.84,10.0,SW,11.5,-,N/A,,Mostly Cloudy,230,2013-08-09 22:54:00
7:54 PM,82.9,72.0,69,29.86,10.0,SW,10.4,-,N/A,,Mostly Cloudy,220,2013-08-09 23:54:00
8:54 PM,81.0,72.0,74,29.87,10.0,SW,10.4,-,N/A,,Mostly Cloudy,230,2013-08-10 00:54:00
9:54 PM,80.1,73.0,79,29.91,10.0,SW,9.2,-,N/A,,Mostly Cloudy,220,2013-08-10 01:54:00
10:54 PM,79.0,73.0,82,29.90,10.0,WSW,10.4,-,N/A,,Mostly Cloudy,240,2013-08-10 02:54:00
11:54 PM,78.1,73.0,84,29.90,10.0,West,9.2,-,N/A,,Mostly Cloudy,260,2013-08-10 03:54:00